[[{"header":{"parameterUnit":"m.s-1","parameterCategory":1,"la1":30.2991,"la2":30.254,"lo1":-89.0895,"lo2":-89.0444,"dy":0.0017,"dx":0.0017,"nx":28,"ny":28,"refTime":"2024-05-06T09:00:00:Z","depth":0,"parameterNumber":2,"parameterNumberName":"U-component_of_WINDS"},"data":[0,0,0,0,0,0,0,0,0,0,0,0,0,0,0,0,0,0,0,0,0,0,0,0,0,0,0,0,0,0,0,0,0,0,0,0,0,0,0,0,0,0,0,0,0,0,0,0,0,0,0,0,0,0,0,0,0,0,-2.2412,-2.2413,0,-2.242,-2.242,-2.242,-2.2387,-2.2386,-2.2385,-2.2384,-2.2394,-2.2395,-2.2396,0,0,0,0,0,0,0,0,0,0,0,0,0,-2.2373,-2.2374,-2.2412,-2.2413,-2.2413,-2.242,-2.242,-2.242,-2.2387,-2.2386,-2.2384,-2.2383,-2.2393,-2.2395,-2.2396,0,0,0,0,0,0,0,0,0,0,0,0,0,-2.2386,-2.2374,-2.2412,-2.2397,-2.2396,-2.242,-2.242,-2.242,-2.2387,-2.2386,-2.2384,-2.2383,-2.2393,-2.2394,-2.2396,-2.2436,0,0,-2.2401,-2.2402,0,0,0,0,0,0,0,0,-2.2386,-2.2388,-2.2399,-2.2398,-2.2397,-2.2401,-2.2409,-2.2425,-2.2387,-2.239,-2.2384,-2.2382,-2.2397,-2.2399,-2.2403,-2.2437,-2.2437,-2.2402,-2.2403,-2.2403,-2.2404,0,0,0,0,0,0,0,-2.2385,-2.2387,-2.2415,-2.2399,-2.2398,-2.2391,-2.2391,-2.2412,-2.2402,-2.239,-2.2388,-2.2389,-2.2396,-2.2402,-2.2403,-2.2437,-2.2402,-2.2403,-2.2404,-2.2405,-2.2504,-2.2506,0,0,0,0,0,0,-2.2386,-2.2387,-2.2415,-2.2416,-2.2387,-2.2393,-2.2393,-2.2401,-2.2402,-2.24,-2.239,-2.2387,-2.2399,-2.2401,-2.2403,-2.245,-2.2403,-2.2405,-2.2406,-2.2503,-2.2505,-2.2506,0,0,0,0,0,0,-2.2385,-2.2388,-2.2415,-2.2401,-2.2403,-2.2395,-2.2404,-2.2402,-2.2407,-2.2402,-2.24,-2.2397,-2.2398,-2.2401,-2.2428,-2.245,-2.2406,-2.2407,-2.2501,-2.2503,-2.2506,-2.2543,0,0,0,0,0,0,-2.2384,-2.2388,-2.2403,-2.2401,-2.2404,-2.2439,-2.2405,-2.2403,-2.241,-2.2406,-2.2408,-2.2407,-2.2397,-2.2426,-2.243,-2.2451,-2.2409,-2.2499,-2.2502,-2.2505,-2.254,-2.2547,-2.2553,0,0,0,0,0,-2.2383,-2.2413,-2.2403,-2.2407,-2.2422,-2.244,-2.2442,-2.243,-2.2412,-2.2426,-2.2423,-2.2407,-2.2447,-2.2429,-2.2433,-2.2456,-2.2497,-2.2501,-2.2505,-2.2537,-2.2546,-2.2552,0,0,0,0,0,0,-2.2418,-2.2413,-2.2402,-2.2433,-2.2437,-2.2434,-2.2452,-2.2439,-2.2449,-2.2445,-2.243,-2.2431,-2.2461,-2.2461,-2.2441,-2.2495,-2.2469,-2.2474,-2.2493,-2.25,-2.2506,-2.2505,-2.241,0,0,0,0,0,-2.243,-2.2444,-2.2439,-2.2467,-2.247,-2.2461,-2.2468,-2.2459,-2.2463,-2.2464,-2.2463,-2.2468,-2.2482,-2.2492,-2.2504,-2.2541,-2.2541,-2.2559,-2.2565,-2.257,-2.2574,-2.2593,-2.2601,-2.2518,-2.2518,-2.2518,0,0,-2.2454,-2.2453,-2.2462,-2.2474,-2.2476,-2.2492,-2.2462,-2.2481,-2.2492,-2.2467,-2.2492,-2.2492,-2.2497,-2.2529,-2.2543,-2.253,-2.2597,-2.2574,-2.2578,-2.2579,-2.2597,-2.2605,-2.2612,-2.2521,-2.252,-2.252,0,0,-2.2505,-2.2506,-2.2529,-2.2531,-2.2535,-2.2529,-2.2535,-2.2534,-2.2533,-2.2558,-2.2539,-2.2554,-2.2578,-2.2582,-2.2588,-2.2642,-2.2627,-2.2647,-2.2679,-2.2698,-2.2704,-2.271,-2.2728,-2.2735,-2.2651,-2.2651,-2.2651,0,-2.2534,-2.2556,-2.2543,-2.2562,-2.2568,-2.2546,-2.257,-2.2573,-2.2581,-2.2586,-2.2572,-2.2602,-2.2604,-2.2636,-2.265,-2.2655,-2.2662,-2.2646,-2.2704,-2.271,-2.2715,-2.2732,-2.274,-2.2654,-2.2653,-2.2653,-2.2653,0,-2.2592,-2.2608,-2.2626,-2.2633,-2.2642,-2.2663,-2.2654,-2.2664,-2.2655,-2.2651,-2.2677,-2.2679,-2.2691,-2.2699,-2.269,-2.273,-2.2722,-2.2707,-2.268,-2.2725,-2.2741,-2.2748,-2.2657,-2.2656,-2.2655,-2.2655,0,0,-2.2664,-2.2664,-2.2671,-2.2674,-2.2676,-2.2689,-2.271,-2.2722,-2.2731,-2.2738,-2.2755,-2.2777,-2.2762,-2.2768,-2.276,-2.2777,-2.2819,-2.2759,-2.2759,-2.2769,-2.2864,-2.2875,-2.2883,-2.281,-2.2812,-2.2813,-2.2863,0,-2.2713,-2.2747,-2.2737,-2.2772,-2.2787,-2.2767,-2.2786,-2.279,-2.2787,-2.28,-2.2798,-2.2813,-2.2793,-2.2797,-2.2813,-2.2811,-2.2838,-2.2807,-2.2826,-2.2827,-2.2824,-2.2891,-2.2903,-2.295,-2.2869,-2.2871,-2.2871,0,-2.2774,-2.2783,-2.2819,-2.282,-2.2825,-2.2842,-2.2852,-2.2865,-2.287,-2.2867,-2.2874,-2.2863,-2.2884,-2.286,-2.289,-2.2869,-2.2877,-2.2877,-2.2879,-2.2879,-2.2851,-2.2892,-2.2965,-2.2972,-2.2881,-2.2881,-2.288,0,-2.2822,-2.2843,-2.2867,-2.2871,-2.2872,-2.2884,-2.2886,-2.2889,-2.2897,-2.2906,-2.2911,-2.2924,-2.293,-2.294,-2.2933,-2.2916,-2.2964,-2.2939,-2.2962,-2.2962,-2.2972,-2.2971,-2.3046,-2.2979,-2.2979,-2.2979,-2.2979,0,-2.2877,-2.29,-2.2888,-2.2903,-2.2929,-2.2917,-2.2943,-2.2943,-2.2946,-2.2961,-2.2946,-2.2961,-2.295,-2.2965,-2.296,-2.2985,-2.2988,-2.2987,-2.2985,-2.2987,-2.2987,-2.2991,-2.2987,-2.2981,-2.2981,-2.298,-2.298,0,-2.2934,-2.2927,-2.2952,-2.2952,-2.2952,-2.2971,-2.2971,-2.2985,-2.2982,-2.3002,-2.3006,-2.3001,-2.3017,-2.3011,-2.3028,-2.3025,-2.3057,-2.3051,-2.3055,-2.3053,-2.3076,-2.3074,-2.3155,-2.3164,-2.3093,-2.3094,-2.3094,0,-2.2969,-2.2986,-2.2987,-2.2996,-2.2998,-2.3013,-2.302,-2.301,-2.3019,-2.3027,-2.304,-2.3055,-2.3066,-2.3093,-2.3091,-2.3105,-2.3098,-2.3126,-2.31,-2.3102,-2.3098,-2.3096,-2.3098,-2.3131,-2.3131,-2.3132,-2.3133,0,-2.3032,-2.3028,-2.3039,-2.3049,-2.3059,-2.3067,-2.3073,-2.3082,-2.3072,-2.3083,-2.3099,-2.3107,-2.3125,-2.314,-2.3152,-2.3154,-2.3142,-2.3141,-2.3147,-2.3149,-2.315,-2.3149,-2.3067,-2.3139,-2.3138,-2.3138,-2.3137,-2.3137,-2.3078,-2.3092,-2.3095,-2.3108,-2.3112,-2.3119,-2.3132,-2.3131,-2.3143,-2.3156,-2.315,-2.3168,-2.3174,-2.3189,-2.3193,-2.3208,-2.3197,-2.3206,-2.3208,-2.321,-2.3213,-2.3149,-2.3211,-2.321,-2.321,-2.321,-2.321,0,-2.3139,-2.314,-2.3152,-2.3162,-2.3173,-2.316,-2.3167,-2.3177,-2.3193,-2.3199,-2.321,-2.3228,-2.3243,-2.3243,-2.3257,-2.3269,-2.3263,-2.3272,-2.3271,-2.3271,-2.3222,-2.3215,-2.3276,-2.3276,-2.3276,-2.3276,-2.3276,-2.3276,-2.3172,-2.3195,-2.3192,-2.3217,-2.3218,-2.3235,-2.324,-2.3247,-2.3251,-2.3272,-2.3284,-2.3284,-2.3287,-2.3301,-2.3314,-2.3314,-2.332,-2.333,-2.3328,-2.3282,-2.3275,-2.3269,-2.3262,-2.3332,-2.3332,-2.3376,-2.3377,-2.3377]},{"header":{"parameterUnit":"m.s-1","parameterCategory":1,"la1":30.2991,"la2":30.254,"lo1":-89.0895,"lo2":-89.0444,"dy":0.0017,"dx":0.0017,"nx":28,"ny":28,"refTime":"2024-05-06T09:00:00:Z","depth":0,"parameterNumber":3,"parameterNumberName":"V-component_of_WINDS"},"data":[0,0,0,0,0,0,0,0,0,0,0,0,0,0,0,0,0,0,0,0,0,0,0,0,0,0,0,0,0,0,0,0,0,0,0,0,0,0,0,0,0,0,0,0,0,0,0,0,0,0,0,0,0,0,0,0,0,0,4.7171,4.7172,0,4.727,4.7271,4.7272,4.7304,4.7304,4.7304,4.7303,4.7406,4.7409,4.7412,0,0,0,0,0,0,0,0,0,0,0,0,0,4.7012,4.7014,4.7171,4.7172,4.7174,4.727,4.7271,4.7273,4.7304,4.7304,4.7303,4.7303,4.7405,4.7409,4.7412,0,0,0,0,0,0,0,0,0,0,0,0,0,4.7093,4.7015,4.7171,4.7201,4.7205,4.727,4.7271,4.7273,4.7305,4.7304,4.7303,4.7303,4.7404,4.7408,4.7413,4.7456,0,0,4.7427,4.7429,0,0,0,0,0,0,0,0,4.7088,4.7099,4.7195,4.7199,4.7203,4.7274,4.7253,4.7334,4.7305,4.7267,4.7303,4.7302,4.7363,4.7371,4.7391,4.746,4.7465,4.7428,4.7431,4.7433,4.7434,0,0,0,0,0,0,0,4.7083,4.7095,4.721,4.7197,4.7202,4.721,4.7221,4.7268,4.7317,4.727,4.7273,4.7284,4.7365,4.7386,4.7394,4.7466,4.7428,4.7432,4.7435,4.7437,4.7577,4.7578,0,0,0,0,0,0,4.7072,4.709,4.7207,4.7213,4.7143,4.7214,4.7226,4.7252,4.7317,4.7326,4.7284,4.7285,4.7379,4.7388,4.7397,4.7453,4.7433,4.7437,4.744,4.7576,4.7577,4.7578,0,0,0,0,0,0,4.7068,4.7082,4.7203,4.7152,4.7168,4.7217,4.7247,4.7255,4.7276,4.7328,4.7337,4.7297,4.7378,4.7391,4.7441,4.7457,4.7439,4.7444,4.7575,4.7577,4.7578,4.7563,0,0,0,0,0,0,4.7063,4.708,4.7097,4.7152,4.7171,4.7245,4.7248,4.7257,4.7284,4.7286,4.7342,4.7351,4.7379,4.7434,4.7446,4.7463,4.7447,4.7574,4.7576,4.7577,4.7562,4.7564,4.7565,0,0,0,0,0,4.7057,4.7089,4.7097,4.7111,4.7192,4.7246,4.7257,4.7288,4.7285,4.7302,4.7336,4.7349,4.7453,4.7439,4.7452,4.7471,4.7573,4.7575,4.7577,4.7562,4.7564,4.7565,0,0,0,0,0,0,4.7034,4.7097,4.7107,4.7157,4.7196,4.7251,4.7274,4.7288,4.7329,4.7329,4.7366,4.7379,4.7427,4.7454,4.7437,4.7517,4.7514,4.7518,4.7497,4.7499,4.75,4.7494,4.7451,0,0,0,0,0,4.7035,4.7072,4.7125,4.7164,4.7183,4.7225,4.7249,4.727,4.7312,4.7329,4.7365,4.7406,4.7448,4.7475,4.7516,4.7566,4.7579,4.7586,4.7587,4.7588,4.7592,4.7621,4.7625,4.7585,4.7585,4.7585,0,0,4.7037,4.7075,4.7097,4.716,4.7193,4.7232,4.7239,4.7279,4.7309,4.7335,4.7385,4.7413,4.7461,4.7512,4.7536,4.7536,4.7606,4.759,4.759,4.7594,4.7624,4.7628,4.7631,4.7586,4.7586,4.7586,0,0,4.706,4.7092,4.7129,4.7161,4.721,4.7238,4.7247,4.73,4.732,4.737,4.7391,4.7427,4.7498,4.7531,4.7558,4.7594,4.7608,4.7606,4.7613,4.7641,4.7645,4.7648,4.7662,4.7666,4.761,4.761,4.761,0,4.7057,4.7115,4.7146,4.7186,4.7214,4.7239,4.7277,4.7307,4.7367,4.7386,4.7384,4.7474,4.7508,4.7568,4.7576,4.7596,4.7608,4.7601,4.7641,4.7645,4.7648,4.7662,4.7667,4.7609,4.7609,4.7609,4.7609,0,4.7109,4.715,4.7173,4.723,4.7261,4.7299,4.7337,4.7364,4.7381,4.7409,4.7461,4.7502,4.7553,4.7568,4.7586,4.763,4.7629,4.7634,4.7632,4.7651,4.7665,4.767,4.7608,4.7609,4.7609,4.7609,0,0,4.7123,4.7195,4.7204,4.723,4.7286,4.7318,4.7358,4.7407,4.743,4.747,4.7506,4.7565,4.757,4.76,4.7621,4.7646,4.7673,4.7648,4.765,4.7653,4.7727,4.7724,4.7729,4.7683,4.7684,4.7685,4.7723,0,4.7154,4.7226,4.7255,4.7314,4.7352,4.7376,4.7411,4.7449,4.7476,4.7513,4.7543,4.7585,4.7588,4.7606,4.7631,4.7665,4.7689,4.7662,4.7717,4.7719,4.7706,4.7736,4.7733,4.7767,4.7728,4.7729,4.773,0,4.7202,4.7242,4.7304,4.7355,4.7373,4.7403,4.7451,4.7485,4.7529,4.7547,4.7581,4.7601,4.7644,4.7638,4.7699,4.768,4.7704,4.7724,4.7726,4.7734,4.7727,4.7746,4.7779,4.7785,4.7739,4.7738,4.7737,0,4.7207,4.7277,4.7323,4.7345,4.7405,4.7427,4.7453,4.7496,4.7524,4.7565,4.7584,4.763,4.7655,4.7691,4.7723,4.7715,4.7782,4.7778,4.7799,4.7798,4.7813,4.7812,4.7852,4.7826,4.7826,4.7825,4.7825,0,4.7241,4.7278,4.7326,4.7355,4.7398,4.7431,4.7473,4.7501,4.7539,4.7574,4.7597,4.763,4.767,4.7708,4.7733,4.7781,4.7792,4.7808,4.7815,4.7807,4.7805,4.7825,4.7824,4.7827,4.7827,4.7826,4.7826,0,4.7254,4.7288,4.734,4.7393,4.7407,4.7437,4.7482,4.7512,4.7539,4.7583,4.7596,4.764,4.7686,4.7721,4.778,4.7798,4.7849,4.7855,4.7834,4.7837,4.7857,4.7855,4.7912,4.7922,4.7887,4.7887,4.7888,0,4.7275,4.7304,4.7359,4.7384,4.741,4.745,4.7478,4.7512,4.754,4.7593,4.7616,4.7663,4.7703,4.7776,4.7813,4.7859,4.7868,4.7885,4.7875,4.7867,4.787,4.7869,4.7872,4.7886,4.7887,4.7887,4.7887,0,4.7307,4.7322,4.7362,4.7407,4.744,4.7477,4.7515,4.7535,4.7575,4.7606,4.7653,4.7684,4.7745,4.7792,4.7842,4.787,4.7886,4.7889,4.7897,4.789,4.7877,4.7886,4.7839,4.7888,4.7888,4.7888,4.7888,4.7888,4.7326,4.7354,4.7397,4.7441,4.7472,4.7507,4.7538,4.7569,4.7608,4.766,4.7677,4.7726,4.777,4.7838,4.7867,4.7906,4.7906,4.7917,4.792,4.7922,4.7923,4.7869,4.7915,4.7915,4.7915,4.7915,4.7915,0,4.7362,4.739,4.743,4.7482,4.7516,4.7526,4.7569,4.7597,4.764,4.7679,4.7717,4.7772,4.7818,4.7859,4.7907,4.793,4.7939,4.7942,4.7941,4.7948,4.7919,4.7908,4.7934,4.7934,4.7934,4.7934,4.7934,4.7934,4.7384,4.7432,4.7452,4.7515,4.7544,4.7592,4.7615,4.7648,4.768,4.7739,4.7777,4.7803,4.7843,4.7894,4.7937,4.7948,4.7965,4.7967,4.798,4.7952,4.795,4.7947,4.7938,4.797,4.797,4.8006,4.8006,4.8007]}]]